Location: Home
(42.5358°N, 72.7383°W)
Time: 17:02:26
(UTC-05:00)

SR - Pass Details

Date: 11 December 2021
Orbit: 582 x 872 km, 66.7° (Epoch: 28 January)

Event Time Altitude Azimuth Distance (km) Brightness Sun altitude
Exits shadow 05:49:44 10° 340° (NNW) 1,953 ? -14.4°
Reaches altitude 10° 05:49:45 10° 340° (NNW) 1,945 ? -14.4°
Maximum altitude 05:53:58 47° 55° (NE) 821 ? -13.6°
Drops below altitude 10° 05:58:25 10° 130° (SE) 2,056 ? -12.9°
Sets 06:00:52 0° 136° (SE) 3,011 ? -12.4°
